Location: Newark
(53.7833°N, 9.4833°E)
Time: 14:30:37
(UTC+00:00)

Envisat - Pass Details

Date: 16 December 2019
Orbit: 764 x 766 km, 98.1° (Epoch: 20 January)

Event Time Altitude Azimuth Distance (km) Brightness Sun altitude
Rises 15:36:59 0° 122° (ESE) 3,230 6.0 -5.1°
Reaches altitude 10° 15:39:38 10° 109° (ESE) 2,307 5.1 -5.4°
Maximum altitude 15:43:40 24° 57° (ENE) 1,542 4.0 -5.9°
Drops below altitude 10° 15:47:43 10° 4° (N) 2,318 5.2 -6.4°
Sets 15:50:23 0° 352° (N) 3,249 6.0 -6.8°
